El Paso, TX

12:17 PM MDT on May 22, 2018 (GMT -0600)
El Paso International

Weather History for KELP - January, 2012

Change the Weather History Date:

Monday, January 16, 2012

  Actual Average Record
Temperature  
Mean Temperature 58 °F 45 °F  
Max Temperature 68 °F 58 °F 74 °F (1914)
Min Temperature 47 °F 32 °F 11 °F (1964)
Degree Days  
Heating Degree Days 7 20  
Month to date heating degree days 302 332  
Since 1 July heating degree days 1399 1400  
Cooling Degree Days 0 0  
Month to date cooling degree days 0 0  
Year to date cooling degree days 0 0  
Growing Degree Days 6 (Base 50)    
Moisture  
Dew Point 35 °F    
Average Humidity 46    
Maximum Humidity 65    
Minimum Humidity 26    
Precipitation  
Precipitation 0.00 in 0.01 in 0.24 in (1884)
Month to date precipitation 0.65 0.20  
Year to date precipitation 0.65 0.20  
Snow  
Snow 0.00 in - - ()
Month to date snowfall 0.1  
Since 1 July snowfall 3.2  
Snow Depth 0.00 in    
Sea Level Pressure  
Sea Level Pressure 29.94 in    
Wind  
Wind Speed 13 mph (SW)    
Max Wind Speed 40 mph    
Max Gust Speed 52 mph    
Visibility 10 miles    
Events      
T = Trace of Precipitation, MM = Missing Value Source: NWS Daily Summary

Daily Weather History Graph

Daily Weather History Graph

Search for Another Location

Airport or City:

Astronomy

Jan. 16, 2012 Rise Set
Actual Time 7:05 AM MST 5:24 PM MST
Civil Twilight 6:39 AM MST 5:51 PM MST
Nautical Twilight 6:09 AM MST 6:21 PM MST
Astronomical Twilight 5:40 AM MST 6:50 PM MST
Moon 12:24 AM MST (1/16) 11:35 AM MST (1/16)
Length of Visible Light 11h 11m
Length of Day
10h 18m
Last Quarter, 45% of the Moon is Illuminated
Jan 16
Last Quarter
Jan 23
New
Jan 30
First Quarter
Feb 7
Full
Feb 14
Last Quarter

Hourly Weather History & Observations

Time (MST) Temp. Dew Point Humidity Pressure Visibility Wind Dir Wind Speed Gust Speed Precip Events Conditions
12:51 AM 50.0 °F 35.1 °F 57% 29.97 in 10.0 mi SE 4.6 mph - N/A   Mostly Cloudy
1:51 AM 51.1 °F 35.1 °F 54% 29.95 in 10.0 mi South 9.2 mph - N/A   Mostly Cloudy
2:51 AM 48.9 °F 35.1 °F 59% 29.93 in 10.0 mi South 8.1 mph - N/A   Mostly Cloudy
3:51 AM 48.9 °F 35.1 °F 59% 29.92 in 10.0 mi South 8.1 mph - N/A   Mostly Cloudy
4:51 AM 48.0 °F 35.1 °F 61% 29.93 in 10.0 mi South 8.1 mph - N/A   Mostly Cloudy
5:51 AM 46.9 °F 35.1 °F 63% 29.94 in 10.0 mi South 6.9 mph - N/A   Mostly Cloudy
6:51 AM 48.0 °F 34.0 °F 58% 29.94 in 10.0 mi South 8.1 mph - N/A   Scattered Clouds
7:51 AM 48.9 °F 33.1 °F 54% 29.95 in 10.0 mi South 6.9 mph - N/A   Scattered Clouds
8:51 AM 54.0 °F 34.0 °F 47% 29.97 in 10.0 mi South 10.4 mph - N/A   Mostly Cloudy
9:51 AM 59.0 °F 35.1 °F 41% 29.97 in 10.0 mi SW 10.4 mph - N/A   Scattered Clouds
10:51 AM 61.0 °F 36.0 °F 39% 29.95 in 10.0 mi SW 12.7 mph - N/A   Scattered Clouds
11:51 AM 62.1 °F 36.0 °F 38% 29.92 in 10.0 mi WSW 10.4 mph - N/A   Scattered Clouds
12:51 PM 66.0 °F 37.0 °F 34% 29.87 in 10.0 mi WSW 21.9 mph 26.5 mph N/A   Scattered Clouds
1:51 PM 64.9 °F 36.0 °F 34% 29.84 in 10.0 mi West 25.3 mph 34.5 mph N/A   Mostly Cloudy
2:51 PM 66.2 °F 35.6 °F 32% 29.95 in 10.0 mi WSW 26.5 mph 33.4 mph N/A   Mostly Cloudy
3:51 PM 66.0 °F 30.9 °F 27% 29.82 in 10.0 mi West 27.6 mph 39.1 mph N/A   Scattered Clouds
4:51 PM 64.0 °F 30.9 °F 29% 29.85 in 10.0 mi West 28.8 mph 39.1 mph N/A   Partly Cloudy
5:51 PM 62.6 °F 30.2 °F 30% 29.96 in 10.0 mi West 33.4 mph 44.9 mph N/A   Partly Cloudy
6:51 PM 60.1 °F 34.0 °F 38% 29.90 in 10.0 mi West 17.3 mph 25.3 mph N/A   Partly Cloudy
7:51 PM 57.9 °F 35.1 °F 42% 29.93 in 10.0 mi WNW 16.1 mph 28.8 mph N/A   Clear
8:51 PM 55.9 °F 36.0 °F 47% 29.96 in 10.0 mi Variable 6.9 mph - N/A   Clear
9:51 PM 51.8 °F 37.4 °F 58% 30.08 in 10.0 mi Calm Calm - N/A   Clear
10:51 PM 52.0 °F 37.9 °F 59% 29.98 in 10.0 mi WNW 8.1 mph - N/A   Partly Cloudy
11:51 PM 50.0 °F 37.9 °F 63% 30.00 in 10.0 mi NW 6.9 mph - N/A   Partly Cloudy